Simultaneous Nadir Overpasses (SNOs) Predictions

Prediction of SNOs between FY3D and NOAA-19 Satellite Orbit:

Table of predicted SNOs for the next 14.0 days since TLE Epoch: 10/10/2020
Index Date (FY3D) Time (FY3D) Lat,Lon (FY3D) SZA (FY3D ) Date (NOAA-19) Time (NOAA-19) Lat,Lon (NOAA-19) SZA (NOAA-19 ) Distance(km) Time Diff (sec)
1 10/15/2020 18:07:02 79.08,-121.31 88.99 10/15/2020 18:05:49 79.10,-121.20 89.03 3.38 73
2 10/15/2020 18:57:46 -79.07, 46.04 91.01 10/15/2020 18:56:50 -79.08, 45.93 90.97 2.84 56
3 10/15/2020 19:48:31 79.08,-146.68 89.02 10/15/2020 19:47:50 79.08,-146.83 89.05 3.38 41
4 10/15/2020 20:39:16 -79.11, 20.43 90.93 10/15/2020 20:38:50 -79.10, 20.56 90.94 2.81 26
5 10/15/2020 21:30:01 79.11,-172.29 89.09 10/15/2020 21:29:50 79.10,-172.20 89.08 2.32 11
6 10/15/2020 22:20:45 -79.10, -4.93 90.91 10/15/2020 22:20:50 -79.12, -4.80 90.91 3.01 5
7 10/15/2020 23:11:30 79.11, 162.35 89.12 10/15/2020 23:11:50 79.11, 162.43 89.11 1.86 20
8 10/16/2020 00:02:14 -79.10, -30.29 90.89 10/16/2020 00:02:51 -79.10, -30.43 90.89 2.91 37
9 10/16/2020 00:52:59 79.11, 136.98 89.14 10/16/2020 00:53:50 79.13, 137.06 89.14 2.93 51
10 10/16/2020 01:43:44 -79.14, -55.91 90.81 10/16/2020 01:44:51 -79.12, -55.79 90.86 3.20 67
